| time (UTC) | temp F | wind direction | speed MPH | gust MPH | rain 1hr in | rain 24hr in | rain mn in | humidity % | barometer mb |
| 20260506140104 | 53 | 176 | 0.0 | 2.0 | 0.00 | 0.00 | 0.00 | ||
| 20260506133044 | 53 | 280 | 0.0 | 1.0 | 0.00 | 0.00 | 0.00 | ||
| 20260506130053 | 53 | 234 | 0.0 | 1.0 | 0.00 | 0.00 | 0.00 | ||
| 20260506123037 | 53 | 262 | 0.0 | 2.0 | 0.00 | 0.00 | 0.00 | ||
| 20260506120108 | 53 | 211 | 0.0 | 2.0 | 0.00 | 0.00 | 0.00 | ||
| 20260506113048 | 53 | 242 | 0.0 | 5.0 | 0.00 | 0.00 | 0.00 | ||
| 20260506103041 | 53 | 217 | 0.0 | 2.0 | 0.00 | 0.00 | 0.00 | ||
| 20260506100049 | 53 | 239 | 0.0 | 1.0 | 0.00 | 0.00 | 0.00 | ||
| 20260506093051 | 53 | 228 | 0.0 | 2.0 | 0.00 | 0.00 | 0.00 | ||
| 20260506083039 | 54 | 249 | 0.0 | 2.0 | 0.00 | 0.00 | 0.00 | ||
| 20260506050106 | 55 | 251 | 1.0 | 3.0 | 0.00 | 0.00 | 0.00 | ||
| 20260506043048 | 55 | 283 | 1.0 | 3.0 | 0.00 | 0.00 | 0.00 | ||
| 20260506040100 | 55 | 258 | 0.0 | 5.0 | 0.00 | 0.00 | 0.00 | ||
| 20260506033037 | 56 | 231 | 1.0 | 2.0 | 0.00 | 0.00 | 0.00 | ||
| 20260506030107 | 56 | 265 | 1.0 | 4.0 | 0.00 | 0.00 | 0.00 | ||
| 20260506023046 | 57 | 215 | 0.0 | 4.0 | 0.00 | 0.00 | 0.00 | ||
| 20260506020054 | 58 | 231 | 1.0 | 4.0 | 0.00 | 0.00 | 0.00 | ||
| 20260506013035 | 59 | 203 | 2.0 | 5.0 | 0.00 | 0.00 | 0.00 | ||
| 20260506010103 | 60 | 258 | 1.0 | 8.0 | 0.00 | 0.00 | 0.00 | ||
| 20260506003044 | 61 | 284 | 1.0 | 6.0 | 0.00 | 0.00 | 0.00 | ||
| 20260506000052 | 63 | 269 | 1.0 | 8.0 | 0.00 | 0.00 | 0.00 | ||
| 20260505233053 | 62 | 255 | 3.0 | 8.0 | 0.00 | 0.00 | 0.00 | ||
| 20260505223020 | 62 | 274 | 1.0 | 6.0 | 0.00 | 0.00 | 0.00 | ||
| 20260505220103 | 63 | 246 | 1.0 | 6.0 | 0.00 | 0.00 | 0.00 | ||
| 20260505210058 | 64 | 194 | 1.0 | 8.0 | 0.00 | 0.00 | 0.00 | ||
| 20260505203038 | 64 | 254 | 3.0 | 6.0 | 0.00 | 0.00 | 0.00 | ||
| 20260505193039 | 61 | 273 | 2.0 | 5.0 | 0.00 | 0.00 | 0.00 | ||
| 20260505190103 | 59 | 211 | 1.0 | 5.0 | 0.00 | 0.00 | 0.00 | ||
| 20260505173039 | 58 | 235 | 1.0 | 4.0 | 0.00 | 0.00 | 0.00 | ||
| 20260505170108 | 57 | 237 | 1.0 | 6.0 | 0.00 | 0.00 | 0.00 | ||
| 20260505163046 | 58 | 259 | 0.0 | 3.0 | 0.00 | 0.00 | 0.00 |